When you browse on this site, cookies collect data to enhance your experience and personalize the content and advertising you see.
Visit our Privacy Policy to learn more. By continuing to use the site, you agree to this use of cookies and data.
  • In Spain
  • List of Countries
  • For 7 days
  • Water Temperature
  • Weather Map
  • Weather Widgets
  • user-avatar
    Login

    Hourly Weather El Guna

    Today, 14 November, Thursday

    Time Temperature Precipitation Wind Pressure Humidity
    00:00 +20°C° 0 mm 0 mps 731 mmHg 67%
    01:00 +20°C° 0 mm 0 mps 731 mmHg 69%
    02:00 +19°C° 0 mm 0 mps 731 mmHg 71%
    03:00 +19°C° 0 mm 0 mps 731 mmHg 71%
    04:00 +19°C° 0 mm 0 mps 731 mmHg 72%
    05:00 +19°C° 0 mm 0 mps 731 mmHg 73%
    06:00 +21°C° 0 mm 0 mps 732 mmHg 64%
    07:00 +23°C° 0 mm 0 mps 732 mmHg 55%
    08:00 +25°C° 0 mm 0 mps 732 mmHg 48%
    09:00 +29°C° 0 mm 1 mps 732 mmHg 44%
    10:00 +30°C° 0 mm 1 mps 733 mmHg 40%
    11:00 +32°C° 0 mm 2 mps 733 mmHg 35%
    12:00 +33°C° 0 mm 3 mps 732 mmHg 36%
    13:00 +33°C° 0 mm 3 mps 732 mmHg 37%
    14:00 +33°C° 0 mm 3 mps 731 mmHg 38%
    15:00 +31°C° 0 mm 3 mps 731 mmHg 47%
    16:00 +29°C° 0 mm 3 mps 731 mmHg 56%
    17:00 +27°C° 0 mm 2 mps 731 mmHg 66%
    18:00 +26°C° 0 mm 2 mps 732 mmHg 63%
    19:00 +25°C° 0 mm 1 mps 732 mmHg 61%
    20:00 +25°C° 0 mm 1 mps 733 mmHg 59%
    21:00 +24°C° 0 mm 1 mps 733 mmHg 58%
    22:00 +24°C° 0 mm 1 mps 733 mmHg 58%
    23:00 +23°C° 0 mm 1 mps 733 mmHg 57%

    Tomorrow, 15 November, Friday

    Time Temperature Precipitation Wind Pressure Humidity
    00:00 +23°C° 0 mm 1 mps 733 mmHg 54%
    01:00 +23°C° 0 mm 1 mps 733 mmHg 52%
    02:00 +22°C° 0 mm 1 mps 733 mmHg 49%
    03:00 +21°C° 0 mm 2 mps 733 mmHg 52%
    04:00 +21°C° 0 mm 2 mps 733 mmHg 55%
    05:00 +20°C° 0 mm 3 mps 733 mmHg 58%
    06:00 +21°C° 0 mm 3 mps 734 mmHg 56%
    07:00 +24°C° 0 mm 3 mps 734 mmHg 54%
    08:00 +25°C° 0 mm 3 mps 734 mmHg 52%
    09:00 +26°C° 0 mm 3 mps 734 mmHg 46%
    10:00 +28°C° 0 mm 3 mps 735 mmHg 41%
    11:00 +30°C° 0 mm 4 mps 735 mmHg 35%
    12:00 +30°C° 0 mm 4 mps 734 mmHg 33%
    13:00 +30°C° 0 mm 5 mps 734 mmHg 31%
    14:00 +32°C° 0 mm 6 mps 733 mmHg 29%
    15:00 +29°C° 0 mm 5 mps 733 mmHg 34%
    16:00 +27°C° 0 mm 5 mps 733 mmHg 38%
    17:00 +25°C° 0 mm 4 mps 733 mmHg 43%
    18:00 +22°C° 0 mm 4 mps 733 mmHg 47%
    19:00 +21°C° 0 mm 3 mps 734 mmHg 52%
    20:00 +20°C° 0 mm 3 mps 734 mmHg 56%
    21:00 +20°C° 0 mm 3 mps 734 mmHg 55%
    22:00 +20°C° 0 mm 4 mps 734 mmHg 54%
    23:00 +20°C° 0 mm 4 mps 734 mmHg 52%

    Day after tomorrow, 16 November, Saturday

    Time Temperature Precipitation Wind Pressure Humidity
    00:00 +19°C° 0 mm 4 mps 733 mmHg 56%
    01:00 +19°C° 0 mm 4 mps 733 mmHg 59%
    02:00 +18°C° 0 mm 4 mps 733 mmHg 62%
    03:00 +18°C° 0 mm 4 mps 733 mmHg 66%
    04:00 +17°C° 0 mm 4 mps 733 mmHg 70%
    05:00 +17°C° 0 mm 4 mps 733 mmHg 74%
    06:00 +18°C° 0 mm 4 mps 733 mmHg 67%
    07:00 +19°C° 0 mm 4 mps 733 mmHg 60%
    08:00 +20°C° 0 mm 5 mps 733 mmHg 52%
    09:00 +22°C° 0 mm 5 mps 733 mmHg 46%
    10:00 +23°C° 0 mm 5 mps 733 mmHg 39%
    11:00 +26°C° 0 mm 6 mps 733 mmHg 33%
    12:00 +26°C° 0 mm 6 mps 732 mmHg 32%
    13:00 +26°C° 0 mm 7 mps 732 mmHg 32%
    14:00 +27°C° 0 mm 7 mps 731 mmHg 31%
    15:00 +24°C° 0 mm 6 mps 731 mmHg 35%
    16:00 +23°C° 0 mm 5 mps 731 mmHg 40%
    17:00 +21°C° 0 mm 4 mps 731 mmHg 44%
    18:00 +20°C° 0 mm 4 mps 731 mmHg 47%
    19:00 +19°C° 0 mm 4 mps 731 mmHg 50%
    20:00 +18°C° 0 mm 3 mps 731 mmHg 54%
    21:00 +18°C° 0 mm 3 mps 731 mmHg 57%
    22:00 +18°C° 0 mm 3 mps 731 mmHg 60%
    23:00 +18°C° 0 mm 3 mps 731 mmHg 64%

    17 November, Sunday

    Time Temperature Precipitation Wind Pressure Humidity
    00:00 +18°C° 0 mm 3 mps 731 mmHg 67%
    01:00 +17°C° 0 mm 3 mps 731 mmHg 71%
    02:00 +17°C° 0 mm 2 mps 731 mmHg 74%
    03:00 +17°C° 0 mm 2 mps 731 mmHg 75%
    04:00 +16°C° 0 mm 2 mps 731 mmHg 76%
    05:00 +16°C° 0 mm 2 mps 731 mmHg 77%
    06:00 +17°C° 0 mm 2 mps 731 mmHg 72%
    07:00 +19°C° 0 mm 2 mps 731 mmHg 68%
    08:00 +20°C° 0 mm 2 mps 732 mmHg 63%
    09:00 +23°C° 0 mm 2 mps 732 mmHg 56%
    10:00 +24°C° 0 mm 2 mps 732 mmHg 49%
    11:00 +25°C° 0 mm 2 mps 732 mmHg 43%
    12:00 +26°C° 0 mm 2 mps 731 mmHg 41%
    13:00 +26°C° 0 mm 3 mps 731 mmHg 39%
    14:00 +27°C° 0 mm 3 mps 731 mmHg 38%
    15:00 +25°C° 0 mm 3 mps 731 mmHg 45%
    16:00 +24°C° 0 mm 2 mps 731 mmHg 52%
    17:00 +21°C° 0 mm 2 mps 731 mmHg 59%
    18:00 +21°C° 0 mm 2 mps 731 mmHg 63%
    19:00 +21°C° 0 mm 1 mps 731 mmHg 67%
    20:00 +20°C° 0 mm 1 mps 731 mmHg 71%
    21:00 +20°C° 0 mm 1 mps 731 mmHg 68%
    22:00 +20°C° 0 mm 1 mps 731 mmHg 66%
    23:00 +20°C° 0 mm 1 mps 731 mmHg 63%

    18 November, Monday

    Time Temperature Precipitation Wind Pressure Humidity
    00:00 +19°C° 0 mm 1 mps 731 mmHg 65%
    01:00 +18°C° 0 mm 1 mps 731 mmHg 66%
    02:00 +16°C° 0 mm 0 mps 731 mmHg 68%
    03:00 +18°C° 0 mm 1 mps 731 mmHg 68%
    04:00 +18°C° 0 mm 1 mps 731 mmHg 68%
    05:00 +18°C° 0 mm 1 mps 731 mmHg 68%
    06:00 +20°C° 0 mm 1 mps 732 mmHg 61%
    07:00 +22°C° 0 mm 1 mps 732 mmHg 55%
    08:00 +24°C° 0 mm 1 mps 733 mmHg 48%
    09:00 +25°C° 0 mm 2 mps 733 mmHg 45%
    10:00 +26°C° 0 mm 2 mps 733 mmHg 43%
    11:00 +27°C° 0 mm 2 mps 733 mmHg 40%
    12:00 +27°C° 0 mm 3 mps 732 mmHg 39%
    13:00 +27°C° 0 mm 3 mps 732 mmHg 38%
    14:00 +28°C° 0 mm 4 mps 732 mmHg 37%
    15:00 +26°C° 0 mm 3 mps 732 mmHg 44%
    16:00 +24°C° 0 mm 3 mps 732 mmHg 51%
    17:00 +23°C° 0 mm 2 mps 732 mmHg 57%
    18:00 +21°C° 0 mm 2 mps 732 mmHg 59%
    19:00 +20°C° 0 mm 2 mps 732 mmHg 62%
    20:00 +20°C° 0 mm 1 mps 732 mmHg 64%
    21:00 +20°C° 0 mm 1 mps 732 mmHg 62%
    22:00 +20°C° 0 mm 1 mps 732 mmHg 61%
    23:00 +20°C° 0 mm 1 mps 732 mmHg 60%

    19 November, Tuesday

    Time Temperature Precipitation Wind Pressure Humidity
    00:00 +19°C° 0 mm 1 mps 732 mmHg 62%
    01:00 +19°C° 0 mm 1 mps 732 mmHg 64%
    02:00 +19°C° 0 mm 1 mps 732 mmHg 66%
    03:00 +19°C° 0 mm 1 mps 732 mmHg 67%
    04:00 +19°C° 0 mm 1 mps 732 mmHg 68%
    05:00 +19°C° 0 mm 1 mps 733 mmHg 70%
    06:00 +20°C° 0 mm 1 mps 733 mmHg 63%
    07:00 +22°C° 0 mm 1 mps 734 mmHg 56%
    08:00 +24°C° 0 mm 1 mps 734 mmHg 49%
    09:00 +25°C° 0 mm 2 mps 734 mmHg 44%
    10:00 +26°C° 0 mm 2 mps 734 mmHg 39%
    11:00 +27°C° 0 mm 2 mps 734 mmHg 34%
    12:00 +28°C° 0 mm 3 mps 733 mmHg 34%
    13:00 +28°C° 0 mm 3 mps 733 mmHg 33%
    14:00 +28°C° 0 mm 3 mps 732 mmHg 32%
    15:00 +26°C° 0 mm 3 mps 732 mmHg 39%
    16:00 +25°C° 0 mm 2 mps 732 mmHg 47%
    17:00 +23°C° 0 mm 2 mps 732 mmHg 54%
    18:00 +21°C° 0 mm 2 mps 732 mmHg 58%
    19:00 +20°C° 0 mm 2 mps 733 mmHg 62%
    20:00 +19°C° 0 mm 2 mps 733 mmHg 65%
    21:00 +19°C° 0 mm 2 mps 733 mmHg 63%
    22:00 +20°C° 0 mm 1 mps 733 mmHg 60%
    23:00 +20°C° 0 mm 1 mps 733 mmHg 57%
    Show more